Time,TemperatureF,DewpointF,PressureIn,WindDirection,WindDirectionDegrees,WindSpeedMPH,WindSpeedGustMPH,Humidity,HourlyPrecipIn,Conditions,Clouds,dailyrainin,SoftwareType,DateUTC
2013-03-04 00:05:00,25.2,7.3,30.06,North,-999,0.0,0.0,46,0.00,,,-99.99,FreeWX 2.04,2013-03-04 05:05:00,
2013-03-04 00:15:00,24.8,7.5,30.06,North,-999,0.0,0.0,47,0.00,,,-99.99,FreeWX 2.04,2013-03-04 05:15:00,
2013-03-04 00:25:00,24.6,7.3,30.06,North,-999,0.0,0.0,47,0.00,,,-99.99,FreeWX 2.04,2013-03-04 05:25:00,
2013-03-04 00:35:00,24.4,8.1,30.06,North,-999,0.0,0.0,49,0.00,,,-99.99,FreeWX 2.04,2013-03-04 05:35:00,
2013-03-04 00:45:00,24.1,8.2,30.06,North,-999,0.0,0.0,50,0.00,,,-99.99,FreeWX 2.04,2013-03-04 05:45:00,
2013-03-04 00:55:00,23.9,8.4,30.06,North,-999,0.0,0.0,51,0.00,,,-99.99,FreeWX 2.04,2013-03-04 05:55:00,
2013-03-04 01:05:00,23.7,8.2,30.06,North,-999,0.0,0.0,51,0.00,,,-99.99,FreeWX 2.04,2013-03-04 06:05:00,
2013-03-04 01:15:00,23.4,7.9,30.06,North,-999,0.0,0.0,51,0.00,,,-99.99,FreeWX 2.04,2013-03-04 06:15:00,
2013-03-04 01:25:00,23.0,7.5,30.06,North,-999,0.0,0.0,51,0.00,,,-99.99,FreeWX 2.04,2013-03-04 06:25:00,
2013-03-04 01:35:00,23.0,7.5,30.09,North,-999,0.0,0.0,51,0.00,,,-99.99,FreeWX 2.04,2013-03-04 06:35:00,
2013-03-04 01:45:00,22.8,7.9,30.09,North,-999,0.0,0.0,52,0.00,,,-99.99,FreeWX 2.04,2013-03-04 06:45:00,
2013-03-04 01:55:00,22.6,7.7,30.09,North,-999,0.0,0.0,52,0.00,,,-99.99,FreeWX 2.04,2013-03-04 06:55:00,
2013-03-04 02:05:00,22.3,7.3,30.09,North,-999,0.0,0.0,52,0.00,,,-99.99,FreeWX 2.04,2013-03-04 07:05:00,
2013-03-04 02:15:00,22.1,7.2,30.09,North,-999,0.0,0.0,52,0.00,,,-99.99,FreeWX 2.04,2013-03-04 07:15:00,
2013-03-04 02:25:00,21.9,7.0,30.09,North,-999,0.0,0.0,52,0.00,,,-99.99,FreeWX 2.04,2013-03-04 07:25:00,
2013-03-04 02:35:00,21.7,6.8,30.09,North,-999,0.0,0.0,52,0.00,,,-99.99,FreeWX 2.04,2013-03-04 07:35:00,
2013-03-04 02:45:00,21.4,6.4,30.09,North,-999,0.0,0.0,52,0.00,,,-99.99,FreeWX 2.04,2013-03-04 07:45:00,
2013-03-04 02:55:00,21.4,7.0,30.09,North,-999,0.0,0.0,53,0.00,,,-99.99,FreeWX 2.04,2013-03-04 07:55:00,
2013-03-04 03:05:00,21.2,7.2,30.09,North,-999,0.0,0.0,54,0.00,,,-99.99,FreeWX 2.04,2013-03-04 08:05:00,
2013-03-04 03:15:00,21.2,7.2,30.09,North,-999,0.0,0.0,54,0.00,,,-99.99,FreeWX 2.04,2013-03-04 08:15:00,
2013-03-04 03:25:00,21.2,7.2,30.09,North,-999,0.0,0.0,54,0.00,,,-99.99,FreeWX 2.04,2013-03-04 08:25:00,
2013-03-04 03:35:00,20.8,6.4,30.09,North,-999,0.0,0.0,53,0.00,,,-99.99,FreeWX 2.04,2013-03-04 08:35:00,
2013-03-04 03:45:00,20.8,6.8,30.09,North,-999,0.0,0.0,54,0.00,,,-99.99,FreeWX 2.04,2013-03-04 08:45:00,
2013-03-04 03:55:00,20.5,6.4,30.09,North,-999,0.0,0.0,54,0.00,,,-99.99,FreeWX 2.04,2013-03-04 08:55:00,
2013-03-04 04:05:00,20.5,6.4,30.09,North,-999,0.0,0.0,54,0.00,,,-99.99,FreeWX 2.04,2013-03-04 09:05:00,
2013-03-04 04:15:00,20.5,6.4,30.09,North,-999,0.0,0.0,54,0.00,,,-99.99,FreeWX 2.04,2013-03-04 09:15:00,
2013-03-04 04:25:00,20.3,6.3,30.09,North,-999,0.0,0.0,54,0.00,,,-99.99,FreeWX 2.04,2013-03-04 09:25:00,
2013-03-04 04:35:00,20.1,6.3,30.12,North,-999,0.0,0.0,54,0.00,,,-99.99,FreeWX 2.04,2013-03-04 09:35:00,
2013-03-04 04:45:00,19.9,6.1,30.12,North,-999,0.0,0.0,54,0.00,,,-99.99,FreeWX 2.04,2013-03-04 09:45:00,
2013-03-04 04:55:00,19.9,6.1,30.12,North,-999,0.0,0.0,54,0.00,,,-99.99,FreeWX 2.04,2013-03-04 09:55:00,
2013-03-04 05:05:00,19.8,5.9,30.12,North,-999,0.0,0.0,54,0.00,,,-99.99,FreeWX 2.04,2013-03-04 10:05:00,
2013-03-04 05:15:00,19.8,5.9,30.12,North,-999,0.0,0.0,54,0.00,,,-99.99,FreeWX 2.04,2013-03-04 10:15:00,
2013-03-04 05:25:00,19.6,5.7,30.12,North,-999,0.0,0.0,54,0.00,,,-99.99,FreeWX 2.04,2013-03-04 10:25:00,
2013-03-04 05:35:00,19.4,5.5,30.12,North,-999,0.0,0.0,54,0.00,,,-99.99,FreeWX 2.04,2013-03-04 10:35:00,
2013-03-04 05:45:00,19.2,5.4,30.12,North,-999,0.0,0.0,54,0.00,,,-99.99,FreeWX 2.04,2013-03-04 10:45:00,
2013-03-04 05:55:00,19.0,5.2,30.12,North,-999,0.0,0.0,54,0.00,,,-99.99,FreeWX 2.04,2013-03-04 10:55:00,
2013-03-04 06:05:00,19.0,5.2,30.12,North,-999,0.0,0.0,54,0.00,,,-99.99,FreeWX 2.04,2013-03-04 11:05:00,
2013-03-04 06:15:00,19.0,5.2,30.12,North,-999,0.0,0.0,54,0.00,,,-99.99,FreeWX 2.04,2013-03-04 11:15:00,
2013-03-04 06:25:00,19.0,5.2,30.12,North,-999,0.0,0.0,54,0.00,,,-99.99,FreeWX 2.04,2013-03-04 11:25:00,
2013-03-04 06:35:00,18.7,4.8,30.15,North,-999,0.0,0.0,54,0.00,,,-99.99,FreeWX 2.04,2013-03-04 11:35:00,
2013-03-04 06:45:00,18.7,4.8,30.15,North,-999,0.0,0.0,54,0.00,,,-99.99,FreeWX 2.04,2013-03-04 11:45:00,
2013-03-04 06:55:00,18.5,4.6,30.15,North,-999,0.0,0.0,54,0.00,,,-99.99,FreeWX 2.04,2013-03-04 11:55:00,
2013-03-04 07:05:00,18.3,4.5,30.15,North,-999,0.0,0.0,54,0.00,,,-99.99,FreeWX 2.04,2013-03-04 12:05:00,
2013-03-04 07:15:00,18.5,4.6,30.15,North,-999,0.0,0.0,54,0.00,,,-99.99,FreeWX 2.04,2013-03-04 12:15:00,
2013-03-04 07:25:00,18.9,5.0,30.15,North,-999,0.0,0.0,54,0.00,,,-99.99,FreeWX 2.04,2013-03-04 12:25:00,
2013-03-04 07:35:00,19.4,5.5,30.15,North,-999,0.0,0.0,54,0.00,,,-99.99,FreeWX 2.04,2013-03-04 12:35:00,
2013-03-04 07:45:00,19.8,5.9,30.15,North,-999,0.0,0.0,54,0.00,,,-99.99,FreeWX 2.04,2013-03-04 12:45:00,
2013-03-04 07:55:00,20.7,6.6,30.15,North,-999,0.0,0.0,54,0.00,,,-99.99,FreeWX 2.04,2013-03-04 12:55:00,
2013-03-04 08:05:00,21.4,7.7,30.15,North,-999,0.0,0.0,55,0.00,,,-99.99,FreeWX 2.04,2013-03-04 13:05:00,
2013-03-04 08:15:00,22.5,8.8,30.15,North,-999,0.0,0.0,55,0.00,,,-99.99,FreeWX 2.04,2013-03-04 13:15:00,
2013-03-04 08:25:00,23.7,9.9,30.15,North,-999,0.0,2.7,55,0.00,,,-99.99,FreeWX 2.04,2013-03-04 13:25:00,
2013-03-04 08:35:00,24.8,10.6,30.15,North,-999,0.0,3.6,54,0.00,,,-99.99,FreeWX 2.04,2013-03-04 13:35:00,
2013-03-04 08:45:00,26.1,11.7,30.15,North,-999,0.0,4.0,54,0.00,,,-99.99,FreeWX 2.04,2013-03-04 13:45:00,
2013-03-04 08:55:00,27.3,12.9,30.15,NNW,328,1.0,4.0,54,0.00,,,-99.99,FreeWX 2.04,2013-03-04 13:55:00,
2013-03-04 09:05:00,28.8,13.8,30.15,NNW,331,1.0,4.0,53,0.00,,,-99.99,FreeWX 2.04,2013-03-04 14:05:00,
2013-03-04 09:15:00,29.8,14.0,30.15,North,-999,0.0,3.6,51,0.00,,,-99.99,FreeWX 2.04,2013-03-04 14:15:00,
2013-03-04 09:25:00,31.3,14.9,30.15,NNW,346,1.0,4.5,50,0.00,,,-99.99,FreeWX 2.04,2013-03-04 14:25:00,
2013-03-04 09:36:00,32.5,13.6,30.15,NNW,332,2.0,4.5,45,0.00,,,-99.99,FreeWX 2.04,2013-03-04 14:36:00,
2013-03-04 09:46:00,33.3,12.2,30.15,NNW,341,1.0,4.5,41,0.00,,,-99.99,FreeWX 2.04,2013-03-04 14:46:00,
2013-03-04 09:56:00,34.2,8.1,30.15,North,350,3.0,6.7,33,0.00,,,-99.99,FreeWX 2.04,2013-03-04 14:56:00,
2013-03-04 10:06:00,34.7,6.4,30.15,North,354,4.0,8.3,30,0.00,,,-99.99,FreeWX 2.04,2013-03-04 15:06:00,
2013-03-04 10:16:00,34.7,4.1,30.15,NNW,327,4.0,10.5,27,0.00,,,-99.99,FreeWX 2.04,2013-03-04 15:16:00,
2013-03-04 10:26:00,35.6,5.0,30.15,NNW,341,4.0,6.9,27,0.00,,,-99.99,FreeWX 2.04,2013-03-04 15:26:00,
2013-03-04 10:36:00,36.7,3.4,30.15,North,1,3.0,5.4,24,0.00,,,-99.99,FreeWX 2.04,2013-03-04 15:36:00,
2013-03-04 10:46:00,37.0,3.6,30.15,NNW,340,4.0,7.8,24,0.00,,,-99.99,FreeWX 2.04,2013-03-04 15:46:00,
2013-03-04 10:56:00,38.1,4.6,30.15,NNW,335,3.0,7.4,24,0.00,,,-99.99,FreeWX 2.04,2013-03-04 15:56:00,
2013-03-04 11:06:00,38.7,4.1,30.15,NNW,330,4.0,7.8,23,0.00,,,-99.99,FreeWX 2.04,2013-03-04 16:06:00,
2013-03-04 11:16:00,39.2,4.6,30.15,NNW,345,4.0,6.9,23,0.00,,,-99.99,FreeWX 2.04,2013-03-04 16:16:00,
2013-03-04 11:26:00,39.9,5.2,30.15,NNE,31,3.0,5.8,23,0.00,,,-99.99,FreeWX 2.04,2013-03-04 16:26:00,
2013-03-04 11:36:00,39.6,2.8,30.15,North,7,4.0,7.4,21,0.00,,,-99.99,FreeWX 2.04,2013-03-04 16:36:00,
2013-03-04 11:46:00,41.2,6.3,30.12,North,359,4.0,6.3,23,0.00,,,-99.99,FreeWX 2.04,2013-03-04 16:46:00,
2013-03-04 11:56:00,42.6,7.5,30.12,NNW,345,4.0,6.7,23,0.00,,,-99.99,FreeWX 2.04,2013-03-04 16:56:00,
2013-03-04 12:06:00,42.6,7.5,30.12,NNW,345,3.0,6.9,23,0.00,,,-99.99,FreeWX 2.04,2013-03-04 17:06:00,
2013-03-04 12:16:00,42.8,7.5,30.12,NNW,342,4.0,6.7,23,0.00,,,-99.99,FreeWX 2.04,2013-03-04 17:16:00,
2013-03-04 12:26:00,44.1,7.7,30.12,North,350,3.0,6.7,22,0.00,,,-99.99,FreeWX 2.04,2013-03-04 17:26:00,
2013-03-04 12:36:00,44.8,6.3,30.12,NNW,343,5.0,8.7,20,0.00,,,-99.99,FreeWX 2.04,2013-03-04 17:36:00,
2013-03-04 12:46:00,44.8,6.3,30.09,NNW,342,4.0,8.7,20,0.00,,,-99.99,FreeWX 2.04,2013-03-04 17:46:00,
2013-03-04 12:56:00,43.2,4.8,30.09,WSW,241,4.0,7.4,20,0.00,,,-99.99,FreeWX 2.04,2013-03-04 17:56:00,
2013-03-04 13:06:00,45.5,6.8,30.09,NNW,340,5.0,9.2,20,0.00,,,-99.99,FreeWX 2.04,2013-03-04 18:06:00,
2013-03-04 13:16:00,45.9,5.9,30.09,North,1,3.0,7.4,19,0.00,,,-99.99,FreeWX 2.04,2013-03-04 18:16:00,
2013-03-04 13:26:00,47.3,7.2,30.09,NNW,345,5.0,7.8,19,0.00,,,-99.99,FreeWX 2.04,2013-03-04 18:26:00,
2013-03-04 13:36:00,47.8,7.5,30.06,NNW,348,4.0,7.8,19,0.00,,,-99.99,FreeWX 2.04,2013-03-04 18:36:00,
2013-03-04 13:46:00,47.8,7.5,30.06,North,359,3.0,6.7,19,0.00,,,-99.99,FreeWX 2.04,2013-03-04 18:46:00,
2013-03-04 13:56:00,46.8,6.8,30.06,NNW,339,4.0,8.3,19,0.00,,,-99.99,FreeWX 2.04,2013-03-04 18:56:00,
2013-03-04 14:06:00,48.6,8.2,30.06,NNW,343,4.0,5.8,19,0.00,,,-99.99,FreeWX 2.04,2013-03-04 19:06:00,
2013-03-04 14:16:00,48.7,8.4,30.06,NNW,347,5.0,8.7,19,0.00,,,-99.99,FreeWX 2.04,2013-03-04 19:16:00,
2013-03-04 14:26:00,47.5,7.3,30.06,NNW,337,3.0,6.3,19,0.00,,,-99.99,FreeWX 2.04,2013-03-04 19:26:00,
2013-03-04 14:36:00,48.2,7.9,30.03,NNW,346,4.0,7.8,19,0.00,,,-99.99,FreeWX 2.04,2013-03-04 19:36:00,
2013-03-04 14:46:00,48.4,8.1,30.03,NNW,346,4.0,7.4,19,0.00,,,-99.99,FreeWX 2.04,2013-03-04 19:46:00,
2013-03-04 14:56:00,48.7,8.4,30.03,NNW,347,4.0,7.4,19,0.00,,,-99.99,FreeWX 2.04,2013-03-04 19:56:00,
2013-03-04 15:06:00,47.7,7.5,30.03,SSE,166,3.0,7.4,19,0.00,,,-99.99,FreeWX 2.04,2013-03-04 20:06:00,
2013-03-04 15:16:00,48.7,8.4,30.03,North,352,2.0,4.0,19,0.00,,,-99.99,FreeWX 2.04,2013-03-04 20:16:00,
2013-03-04 15:26:00,50.0,9.3,30.03,NNW,342,4.0,5.8,19,0.00,,,-99.99,FreeWX 2.04,2013-03-04 20:26:00,
2013-03-04 15:36:00,49.6,9.1,30.03,North,354,2.0,5.8,19,0.00,,,-99.99,FreeWX 2.04,2013-03-04 20:36:00,
2013-03-04 15:46:00,50.0,9.3,30.03,North,358,4.0,6.3,19,0.00,,,-99.99,FreeWX 2.04,2013-03-04 20:46:00,
2013-03-04 15:56:00,49.3,8.8,30.03,North,11,3.0,5.8,19,0.00,,,-99.99,FreeWX 2.04,2013-03-04 20:56:00,
2013-03-04 16:06:00,48.6,8.2,30.03,NNE,16,3.0,6.9,19,0.00,,,-99.99,FreeWX 2.04,2013-03-04 21:06:00,
2013-03-04 16:16:00,48.6,8.2,30.03,North,359,2.0,4.9,19,0.00,,,-99.99,FreeWX 2.04,2013-03-04 21:16:00,
2013-03-04 16:26:00,48.6,8.2,30.03,North,4,3.0,5.8,19,0.00,,,-99.99,FreeWX 2.04,2013-03-04 21:26:00,
2013-03-04 16:36:00,48.0,7.7,30.00,North,1,3.0,6.7,19,0.00,,,-99.99,FreeWX 2.04,2013-03-04 21:36:00,
2013-03-04 16:46:00,47.3,7.2,30.00,North,349,3.0,6.7,19,0.00,,,-99.99,FreeWX 2.04,2013-03-04 21:46:00,
2013-03-04 16:56:00,46.2,6.3,30.00,NNW,346,3.0,6.3,19,0.00,,,-99.99,FreeWX 2.04,2013-03-04 21:56:00,
2013-03-04 17:06:00,45.5,5.7,30.00,NNW,348,3.0,5.4,19,0.00,,,-99.99,FreeWX 2.04,2013-03-04 22:06:00,
2013-03-04 17:16:00,45.1,6.4,30.00,NW,315,1.0,3.6,20,0.00,,,-99.99,FreeWX 2.04,2013-03-04 22:16:00,
2013-03-04 17:26:00,44.8,6.3,30.00,North,-999,0.0,2.7,20,0.00,,,-99.99,FreeWX 2.04,2013-03-04 22:26:00,
2013-03-04 17:36:00,44.8,6.3,30.00,North,-999,0.0,0.0,20,0.00,,,-99.99,FreeWX 2.04,2013-03-04 22:36:00,
2013-03-04 17:46:00,44.6,6.1,30.00,North,-999,0.0,0.0,20,0.00,,,-99.99,FreeWX 2.04,2013-03-04 22:46:00,
2013-03-04 17:56:00,44.2,5.7,30.00,North,-999,0.0,0.0,20,0.00,,,-99.99,FreeWX 2.04,2013-03-04 22:56:00,
2013-03-04 18:06:00,43.7,5.4,30.00,North,351,2.0,4.5,20,0.00,,,-99.99,FreeWX 2.04,2013-03-04 23:06:00,
2013-03-04 18:16:00,43.3,5.0,30.00,NW,326,3.0,5.4,20,0.00,,,-99.99,FreeWX 2.04,2013-03-04 23:16:00,
2013-03-04 18:26:00,43.0,4.6,30.00,WNW,291,2.0,4.0,20,0.00,,,-99.99,FreeWX 2.04,2013-03-04 23:26:00,
2013-03-04 18:36:00,42.4,4.3,30.00,West,263,1.0,3.6,20,0.00,,,-99.99,FreeWX 2.04,2013-03-04 23:36:00,
2013-03-04 18:46:00,42.1,3.9,30.00,North,-999,0.0,0.0,20,0.00,,,-99.99,FreeWX 2.04,2013-03-04 23:46:00,
2013-03-04 18:56:00,41.7,4.6,30.00,North,-999,0.0,0.0,21,0.00,,,-99.99,FreeWX 2.04,2013-03-04 23:56:00,
2013-03-04 19:06:00,41.7,4.6,30.03,North,-999,0.0,0.0,21,0.00,,,-99.99,FreeWX 2.04,2013-03-05 00:06:00,
2013-03-04 19:16:00,41.2,4.3,30.03,North,-999,0.0,0.0,21,0.00,,,-99.99,FreeWX 2.04,2013-03-05 00:16:00,
2013-03-04 19:26:00,40.8,3.9,30.03,North,-999,0.0,0.0,21,0.00,,,-99.99,FreeWX 2.04,2013-03-05 00:26:00,
2013-03-04 19:36:00,40.6,3.7,30.03,North,-999,0.0,0.0,21,0.00,,,-99.99,FreeWX 2.04,2013-03-05 00:36:00,
2013-03-04 19:46:00,40.6,3.7,30.03,North,-999,0.0,4.0,21,0.00,,,-99.99,FreeWX 2.04,2013-03-05 00:46:00,
2013-03-04 19:56:00,40.5,5.5,30.03,North,-999,0.0,3.6,23,0.00,,,-99.99,FreeWX 2.04,2013-03-05 00:56:00,
2013-03-04 20:07:00,40.5,5.5,30.00,North,-999,0.0,4.0,23,0.00,,,-99.99,FreeWX 2.04,2013-03-05 01:07:00,
2013-03-04 20:17:00,40.3,5.5,30.00,North,-999,0.0,3.1,23,0.00,,,-99.99,FreeWX 2.04,2013-03-05 01:17:00,
2013-03-04 20:27:00,39.9,5.2,30.00,North,351,2.0,4.9,23,0.00,,,-99.99,FreeWX 2.04,2013-03-05 01:27:00,
2013-03-04 20:37:00,40.1,5.4,30.00,NNW,346,2.0,4.5,23,0.00,,,-99.99,FreeWX 2.04,2013-03-05 01:37:00,
2013-03-04 20:47:00,40.1,5.4,30.00,NW,317,1.0,3.6,23,0.00,,,-99.99,FreeWX 2.04,2013-03-05 01:47:00,
2013-03-04 20:57:00,39.4,4.6,30.00,North,-999,0.0,3.1,23,0.00,,,-99.99,FreeWX 2.04,2013-03-05 01:57:00,
2013-03-04 21:07:00,39.2,4.6,30.00,NNW,337,4.0,7.4,23,0.00,,,-99.99,FreeWX 2.04,2013-03-05 02:07:00,
2013-03-04 21:17:00,39.4,4.6,30.00,NNW,335,4.0,8.3,23,0.00,,,-99.99,FreeWX 2.04,2013-03-05 02:17:00,
2013-03-04 21:27:00,39.4,7.3,30.00,NNW,333,3.0,5.4,26,0.00,,,-99.99,FreeWX 2.04,2013-03-05 02:27:00,
2013-03-04 21:37:00,39.4,7.3,30.00,North,-999,0.0,3.6,26,0.00,,,-99.99,FreeWX 2.04,2013-03-05 02:37:00,
2013-03-04 21:47:00,39.2,7.2,30.00,North,-999,0.0,0.0,26,0.00,,,-99.99,FreeWX 2.04,2013-03-05 02:47:00,
2013-03-04 21:57:00,38.5,8.2,30.00,NW,312,1.0,5.4,28,0.00,,,-99.99,FreeWX 2.04,2013-03-05 02:57:00,
2013-03-04 22:07:00,38.8,9.3,30.00,NNW,343,2.0,4.5,29,0.00,,,-99.99,FreeWX 2.04,2013-03-05 03:07:00,
2013-03-04 22:17:00,38.7,8.4,29.97,NNW,340,4.0,7.4,28,0.00,,,-99.99,FreeWX 2.04,2013-03-05 03:17:00,
2013-03-04 22:27:00,38.8,9.3,29.97,North,354,3.0,7.4,29,0.00,,,-99.99,FreeWX 2.04,2013-03-05 03:27:00,
2013-03-04 22:37:00,38.7,9.1,30.00,North,352,2.0,4.0,29,0.00,,,-99.99,FreeWX 2.04,2013-03-05 03:37:00,
2013-03-04 22:47:00,38.1,8.8,30.00,SE,146,2.0,3.6,29,0.00,,,-99.99,FreeWX 2.04,2013-03-05 03:47:00,
2013-03-04 22:57:00,38.5,10.6,30.00,North,-999,0.0,2.7,31,0.00,,,-99.99,FreeWX 2.04,2013-03-05 03:57:00,
2013-03-04 23:07:00,38.1,10.9,30.00,North,-999,0.0,3.6,32,0.00,,,-99.99,FreeWX 2.04,2013-03-05 04:07:00,
2013-03-04 23:17:00,38.1,9.5,30.00,North,-999,0.0,3.6,30,0.00,,,-99.99,FreeWX 2.04,2013-03-05 04:17:00,
2013-03-04 23:27:00,37.9,10.0,30.00,North,-999,0.0,3.6,31,0.00,,,-99.99,FreeWX 2.04,2013-03-05 04:27:00,
2013-03-04 23:37:00,38.1,9.5,30.00,North,-999,0.0,0.0,30,0.00,,,-99.99,FreeWX 2.04,2013-03-05 04:37:00,
2013-03-04 23:47:00,37.6,8.2,30.00,North,-999,0.0,0.0,29,0.00,,,-99.99,FreeWX 2.04,2013-03-05 04:47:00,
2013-03-04 23:57:00,37.4,8.8,30.00,North,351,1.0,4.0,30,0.00,,,-99.99,FreeWX 2.04,2013-03-05 04:57:00,